402P/LINEAR (2021)

Japanese version
Home page
Updated on May 16, 2022

---------------------------------------------------------------------

* Profile

Designation 402P/2020 Q3
Recovery Date August 18, 2020
Magnitude 19.5 mag
Recoverer E. Schwab (Egelsbach, Germany)

* Pictures

* Orbital Elements

Epoch 2022 Jan. 21.0 TT = JDT 2459600.5
T 2021 Dec. 14.55584 TT                                 Rudenko
q   3.9378774            (2000.0)            P               Q
n   0.05303269     Peri.  326.73247     -0.06196473     -0.90087813
a   7.0162808      Node   123.09205     +0.99049125     -0.10847984
e   0.4387515      Incl.   30.85096     +0.12283100     +0.42029837
P  18.6
From 1603 observations 2001 Nov. 22-2022 Feb. 12, mean residual 0".6.
     Nongravitational parameters A1 = -0.94, A2 = -0.6462.

* Finding Charts

* Magnitudes Graph

        m1 = -5   + 5 log d + 30   log r  [    ,-280]  (             - 2021 Mar.  9)
        m1 =  6.0 + 5 log d + 12.5 log r  [-280,    ]  (2021 Mar.  9 -             )

---------------------------------------------------------------------

The orbital elements are published on M.P.E.C. 2022-C234.
The charts are made with StellaNavigator Ver.10 (AstroArts).
The magnitudes graphs are made with Comet for Windows.

---------------------------------------------------------------------

Copyright(C) Seiichi Yoshida (comet@aerith.net). All rights reserved.